O3B FM7 (40080 NORAD) Tracking and Keplerian Element Data

This shows tracking and keplerian element data for the satellite.

Feedback or suggestion? Click here.




ElementValue
Catalog40080
NameO3B FM7
Epoch Orbit19292
Epoch Day34.32490624
Epoch Year2025
RAAN0.7005
Inclination0.04
Eccentricity0.0001655
Argument of Perigee347.9378
Mean Anonmoly11.3534
Mean Motion5.0011527
Decay Rate-1.3E-07
L11 40080U 14038B 25034.32490624 -.00000013 00000+0 00000+0 0 9995
L22 40080 0.0400 0.7005 0001655 347.9378 11.3534 5.00115270192929



Live tracking and technical data element details for O3B FM7 (NORAD 40080). O3B FM7 can be tracked NOW for your location showing map with azimuth and elevation plus other details from your city location.







IsCatalogInMostPopularTable: catalog: 40080, numindb: 392
Update: records affected: 1



GetName: 40080 O3B FM7

Hit Count: updated at: Fri, 16 May 2025 11:15:45 GMT